Location: Ostrava
(49.8330°N, 18.2830°E)
Time: 16:20:44
(UTC+02:00)

ISS - Visible Passes

Search period start: 28 September 2023 00:00
Search period end: 08 October 2023 00:00
Orbit: 413 x 421 km, 51.6° (Epoch: 28 September)

Date Brightness Start Highest point End Pass type
(mag) Time Alt. Az. Time Alt. Az. Time Alt. Az.
28 Sep -3.4 20:05:40 10° WNW 20:08:57 54° SSW 20:10:02 35° SSE visible
29 Sep -3.7 19:17:22 10° WNW 19:20:43 75° SSW 19:23:42 12° ESE visible
29 Sep -1.4 20:54:39 10° W 20:56:37 18° SW 20:56:37 18° SW visible
30 Sep -2.1 20:06:00 10° W 20:08:54 27° SW 20:10:18 20° S visible
01 Oct -2.6 19:17:29 10° W 19:20:38 39° SSW 19:23:46 10° SE visible
02 Oct -1.0 20:06:50 10° WSW 20:08:28 13° SW 20:10:04 10° SSW visible
03 Oct -1.3 19:17:41 10° W 19:20:11 20° SW 19:22:40 10° S visible
